Meriden, CT

7:35 PM EST on November 14, 2019 (GMT -0500)
Meriden Markham Municipal

Weather History for KMMK - October, 2019

Change the Weather History Date:

Tuesday, October 22, 2019

  Actual Average (KOXC) Record (KOXC)
Temperature  
Mean Temperature 52 °F -  
Max Temperature 57 °F 54 °F 77 °F (2007)
Min Temperature 46 °F 38 °F 26 °F (2018)
Degree Days  
Heating Degree Days 14    
Growing Degree Days 2 (Base 50)    
Moisture  
Dew Point 50 °F    
Average Humidity 89    
Maximum Humidity 97    
Minimum Humidity 77    
Precipitation  
Precipitation 0.15 in - - ()
Sea Level Pressure  
Sea Level Pressure 30.01 in    
Wind  
Wind Speed 2 mph (NE)    
Max Wind Speed 6 mph    
Max Gust Speed -    
Visibility 8 miles    
Events Rain    
Averages and records for this station are not official NWS values.
T = Trace of Precipitation, MM = Missing Value Source: NWS Daily Summary

Daily Weather History Graph

Daily Weather History Graph

Search for Another Location

Airport or City:

Astronomy

Oct. 22, 2019 Rise Set
Actual Time 7:10 AM EDT 6:00 PM EDT
Civil Twilight 6:42 AM EDT 6:28 PM EDT
Nautical Twilight 6:10 AM EDT 7:00 PM EDT
Astronomical Twilight 5:38 AM EDT 7:32 PM EDT
Moon 12:11 AM EDT (10/22) 3:12 PM EDT (10/22)
Length of Visible Light 11h 45m
Length of Day
10h 49m
Last Quarter, 37% of the Moon is Illuminated
Oct 22
Last Quarter
Oct 27
New
Nov 4
First Quarter
Nov 12
Full
Nov 19
Last Quarter

Hourly Weather History & Observations

Time (EDT) Temp. Dew Point Humidity Pressure Visibility Wind Dir Wind Speed Gust Speed Precip Events Conditions
12:53 AM 46.9 °F 44.1 °F 90% 30.15 in 10.0 mi Calm Calm - N/A   Clear
1:53 AM 46.0 °F 44.1 °F 93% 30.15 in 10.0 mi Calm Calm - N/A   Clear
2:53 AM 46.0 °F 44.1 °F 93% 30.13 in 10.0 mi Calm Calm - N/A   Clear
3:53 AM 46.0 °F 44.1 °F 93% 30.11 in 10.0 mi Calm Calm - N/A   Clear
4:53 AM 46.9 °F 44.1 °F 90% 30.11 in 10.0 mi NNE 3.5 mph - N/A   Clear
5:53 AM 48.0 °F 44.1 °F 86% 30.12 in 10.0 mi Calm Calm - N/A   Clear
6:53 AM 46.9 °F 44.1 °F 90% 30.11 in 10.0 mi Calm Calm - N/A   Clear
7:53 AM 48.0 °F 44.1 °F 86% 30.12 in 10.0 mi Variable 3.5 mph - N/A   Clear
8:53 AM 50.0 °F 44.1 °F 80% 30.12 in 10.0 mi Variable 5.8 mph - N/A   Mostly Cloudy
9:05 AM 50.0 °F 45.0 °F 83% 30.12 in 10.0 mi NNE 4.6 mph - N/A   Mostly Cloudy
9:53 AM 52.0 °F 46.9 °F 83% 30.11 in 10.0 mi ENE 5.8 mph - N/A   Overcast
10:53 AM 54.0 °F 46.9 °F 77% 30.10 in 10.0 mi Calm Calm - N/A   Overcast
11:23 AM 55.0 °F 48.0 °F 77% 30.10 in 10.0 mi Calm Calm - N/A   Overcast
11:53 AM 55.0 °F 48.9 °F 80% 30.09 in 10.0 mi ENE 5.8 mph - N/A   Overcast
12:23 PM 55.9 °F 48.9 °F 77% 30.08 in 10.0 mi Calm Calm - N/A   Overcast
12:53 PM 55.9 °F 50.0 °F 80% 30.07 in 10.0 mi Variable 4.6 mph - N/A   Overcast
1:53 PM 57.0 °F 52.0 °F 83% 30.03 in 10.0 mi East 3.5 mph - N/A   Overcast
2:53 PM 57.0 °F 53.1 °F 87% 30.00 in 10.0 mi Variable 4.6 mph - N/A   Overcast
3:08 PM 57.0 °F 53.1 °F 87% 29.99 in 10.0 mi Calm Calm - N/A   Overcast
3:21 PM 57.0 °F 52.0 °F 83% 29.98 in 10.0 mi ESE 4.6 mph - N/A   Overcast
3:53 PM 57.0 °F 53.1 °F 87% 29.97 in 10.0 mi ENE 3.5 mph - N/A   Overcast
4:53 PM 57.9 °F 53.1 °F 84% 29.96 in 10.0 mi East 3.5 mph - N/A   Overcast
5:53 PM 57.0 °F 53.1 °F 87% 29.96 in 9.0 mi Calm Calm - N/A   Overcast
6:08 PM 55.9 °F 54.0 °F 93% 29.95 in 8.0 mi Calm Calm - N/A   Overcast
6:53 PM 57.0 °F 54.0 °F 89% 29.94 in 10.0 mi Variable 3.5 mph - N/A   Overcast
7:53 PM 57.0 °F 54.0 °F 89% 29.93 in 10.0 mi Calm Calm - N/A   Overcast
8:46 PM 55.9 °F 55.0 °F 97% 29.92 in 2.5 mi Calm Calm - N/A   Overcast
8:53 PM 55.9 °F 55.0 °F 97% 29.92 in 3.0 mi NW 3.5 mph - N/A   Overcast
9:11 PM 55.9 °F 55.0 °F 97% 29.92 in 3.0 mi NNW 3.5 mph - 0.00 in Rain Light Rain
9:19 PM 55.9 °F 55.0 °F 97% 29.93 in 2.0 mi NW 3.5 mph - 0.01 in Rain Light Rain
9:26 PM 55.9 °F 55.0 °F 97% 29.92 in 1.8 mi Calm Calm - 0.03 in Rain Rain
9:44 PM 55.9 °F 55.0 °F 97% 29.91 in 2.5 mi Calm Calm - 0.05 in Rain Light Rain
9:53 PM 55.9 °F 55.0 °F 97% 29.91 in 2.5 mi ENE 3.5 mph - 0.07 in Rain Rain
10:03 PM 55.9 °F 55.0 °F 97% 29.90 in 4.0 mi ENE 3.5 mph - 0.03 in Rain Rain
10:40 PM 55.9 °F 54.0 °F 93% 29.89 in 6.0 mi Calm Calm - 0.07 in Rain Rain
10:53 PM 55.9 °F 54.0 °F 93% 29.88 in 10.0 mi NNW 3.5 mph - 0.07 in Rain Light Rain
11:53 PM 55.9 °F 55.0 °F 97% 29.84 in 10.0 mi Calm Calm - 0.01 in Rain Light Rain